Time,TemperatureF,DewpointF,PressureIn,WindDirection,WindDirectionDegrees,WindSpeedMPH,WindSpeedGustMPH,Humidity,HourlyPrecipIn,Conditions,Clouds,dailyrainin,SoftwareType,DateUTC
2013-06-19 00:00:00,70.1,64.0,29.99,ESE,108,0.0,4.0,81,0.00,,SKC,0.00,VWS V12.07,2013-06-19 05:00:00,
2013-06-19 00:07:00,70.0,63.9,29.99,ESE,103,0.0,2.0,81,0.00,,SKC,0.00,VWS V12.07,2013-06-19 05:07:00,
2013-06-19 00:14:00,70.0,63.9,29.99,SE,125,1.0,5.0,81,0.00,,SKC,0.00,VWS V12.07,2013-06-19 05:14:00,
2013-06-19 00:20:00,70.0,63.5,29.99,East,90,0.0,5.0,80,0.00,,SKC,0.00,VWS V12.07,2013-06-19 05:20:00,
2013-06-19 00:27:00,69.9,63.5,29.99,ESE,113,2.0,5.0,80,0.00,,SKC,0.00,VWS V12.07,2013-06-19 05:27:00,
2013-06-19 00:34:00,69.9,63.5,30.00,NE,56,4.0,4.0,80,0.00,,SKC,0.00,VWS V12.07,2013-06-19 05:34:00,
2013-06-19 00:40:00,69.9,63.1,30.00,ESE,112,2.0,4.0,79,0.00,,SKC,0.00,VWS V12.07,2013-06-19 05:40:00,
2013-06-19 00:47:00,69.7,62.9,30.00,SE,138,1.0,4.0,79,0.00,,SKC,0.00,VWS V12.07,2013-06-19 05:47:00,
2013-06-19 00:54:00,69.6,62.8,30.00,SE,131,1.0,4.0,79,0.00,,SKC,0.00,VWS V12.07,2013-06-19 05:54:00,
2013-06-19 01:00:00,69.5,62.7,30.00,ESE,105,2.0,4.0,79,0.00,,SKC,0.00,VWS V12.07,2013-06-19 06:00:00,
2013-06-19 01:07:00,69.3,62.5,30.00,ESE,117,1.0,4.0,79,0.00,,SKC,0.00,VWS V12.07,2013-06-19 06:07:00,
2013-06-19 01:14:00,69.0,62.2,30.00,SE,134,2.0,4.0,79,0.00,,SKC,0.00,VWS V12.07,2013-06-19 06:14:00,
2013-06-19 01:20:00,68.9,62.1,30.00,East,94,3.0,7.0,79,0.00,,SKC,0.00,VWS V12.07,2013-06-19 06:20:00,
2013-06-19 01:29:00,68.6,61.8,30.00,ESE,122,1.0,7.0,79,0.00,,SKC,0.00,VWS V12.07,2013-06-19 06:29:00,
2013-06-19 01:34:00,68.4,61.6,30.00,SE,146,2.0,6.0,79,0.00,,SKC,0.00,VWS V12.07,2013-06-19 06:34:00,
2013-06-19 01:42:00,68.1,61.3,30.00,SE,131,0.0,6.0,79,0.00,,SKC,0.00,VWS V12.07,2013-06-19 06:42:00,
2013-06-19 01:49:00,67.9,61.2,30.00,SE,128,1.0,6.0,79,0.00,,SKC,0.00,VWS V12.07,2013-06-19 06:49:00,
2013-06-19 01:54:00,67.6,61.2,30.00,ESE,117,2.0,6.0,80,0.00,,SKC,0.00,VWS V12.07,2013-06-19 06:54:00,
2013-06-19 02:01:00,67.5,61.1,30.00,East,96,3.0,3.0,80,0.00,,SKC,0.00,VWS V12.07,2013-06-19 07:01:00,
2013-06-19 02:08:00,67.2,61.2,30.01,ESE,105,0.0,5.0,81,0.00,,SKC,0.00,VWS V12.07,2013-06-19 07:08:00,
2013-06-19 02:14:00,67.1,60.7,30.01,East,98,1.0,5.0,80,0.00,,SKC,0.00,VWS V12.07,2013-06-19 07:14:00,
2013-06-19 02:22:00,67.0,61.0,30.01,ESE,102,0.0,5.0,81,0.00,,SKC,0.00,VWS V12.07,2013-06-19 07:22:00,
2013-06-19 02:28:00,66.9,60.9,30.01,ESE,117,0.0,5.0,81,0.00,,SKC,0.00,VWS V12.07,2013-06-19 07:28:00,
2013-06-19 02:34:00,66.8,60.8,30.01,ESE,103,0.0,0.0,81,0.00,,SKC,0.00,VWS V12.07,2013-06-19 07:34:00,
2013-06-19 02:41:00,66.7,60.7,30.02,East,100,0.0,0.0,81,0.00,,SKC,0.00,VWS V12.07,2013-06-19 07:41:00,
2013-06-19 02:49:00,66.6,60.6,30.02,East,85,2.0,4.0,81,0.00,,SKC,0.00,VWS V12.07,2013-06-19 07:49:00,
2013-06-19 02:55:00,66.5,60.5,30.02,East,89,2.0,4.0,81,0.00,,SKC,0.00,VWS V12.07,2013-06-19 07:55:00,
2013-06-19 03:02:00,66.3,60.3,30.02,East,83,0.0,0.0,81,0.00,,SKC,0.00,VWS V12.07,2013-06-19 08:02:00,
2013-06-19 03:09:00,66.1,60.5,30.02,SE,129,0.0,0.0,82,0.00,,SKC,0.00,VWS V12.07,2013-06-19 08:09:00,
2013-06-19 03:15:00,65.9,60.3,30.02,SE,133,0.0,2.0,82,0.00,,SKC,0.00,VWS V12.07,2013-06-19 08:15:00,
2013-06-19 03:22:00,65.7,60.4,30.01,East,79,1.0,4.0,83,0.00,,SKC,0.00,VWS V12.07,2013-06-19 08:22:00,
2013-06-19 03:28:00,65.5,60.2,30.01,ESE,102,1.0,4.0,83,0.00,,SKC,0.00,VWS V12.07,2013-06-19 08:28:00,
2013-06-19 03:35:00,65.4,60.1,30.01,East,91,1.0,3.0,83,0.00,,SKC,0.00,VWS V12.07,2013-06-19 08:35:00,
2013-06-19 03:42:00,65.2,59.9,30.02,SSE,148,2.0,3.0,83,0.00,,SKC,0.00,VWS V12.07,2013-06-19 08:42:00,
2013-06-19 03:48:00,65.0,59.7,30.02,ESE,111,3.0,5.0,83,0.00,,SKC,0.00,VWS V12.07,2013-06-19 08:48:00,
2013-06-19 03:55:00,64.9,59.6,30.01,East,97,2.0,5.0,83,0.00,,SKC,0.00,VWS V12.07,2013-06-19 08:55:00,
2013-06-19 04:02:00,64.9,59.6,30.02,East,94,1.0,2.0,83,0.00,,SKC,0.00,VWS V12.07,2013-06-19 09:02:00,
2013-06-19 04:08:00,64.7,59.4,30.02,East,83,0.0,4.0,83,0.00,,SKC,0.00,VWS V12.07,2013-06-19 09:08:00,
2013-06-19 04:15:00,64.5,59.2,30.02,East,97,0.0,4.0,83,0.00,,SKC,0.00,VWS V12.07,2013-06-19 09:15:00,
2013-06-19 04:22:00,64.3,59.4,30.02,ENE,71,1.0,4.0,84,0.00,,SKC,0.00,VWS V12.07,2013-06-19 09:22:00,
2013-06-19 04:28:00,64.3,59.0,30.02,East,99,0.0,4.0,83,0.00,,SKC,0.00,VWS V12.07,2013-06-19 09:28:00,
2013-06-19 04:34:00,64.4,59.5,30.03,SE,132,1.0,2.0,84,0.00,,SKC,0.00,VWS V12.07,2013-06-19 09:34:00,
2013-06-19 04:42:00,64.3,59.4,30.03,East,84,3.0,3.0,84,0.00,,SKC,0.00,VWS V12.07,2013-06-19 09:42:00,
2013-06-19 04:48:00,64.1,59.5,30.02,SE,140,0.0,3.0,85,0.00,,SKC,0.00,VWS V12.07,2013-06-19 09:48:00,
2013-06-19 04:55:00,63.8,59.2,30.03,SE,135,0.0,3.0,85,0.00,,SKC,0.00,VWS V12.07,2013-06-19 09:55:00,
2013-06-19 05:02:00,63.7,59.1,30.03,ESE,106,0.0,1.0,85,0.00,,SKC,0.00,VWS V12.07,2013-06-19 10:02:00,
2013-06-19 05:08:00,63.6,59.3,30.03,ESE,122,0.0,1.0,86,0.00,,SKC,0.00,VWS V12.07,2013-06-19 10:08:00,
2013-06-19 05:14:00,63.4,59.2,30.03,ESE,120,0.0,1.0,86,0.00,,SKC,0.00,VWS V12.07,2013-06-19 10:14:00,
2013-06-19 05:22:00,63.0,59.1,30.03,East,99,0.0,1.0,87,0.00,,SKC,0.00,VWS V12.07,2013-06-19 10:22:00,
2013-06-19 05:29:00,63.0,59.1,30.04,ESE,110,0.0,2.0,87,0.00,,SKC,0.00,VWS V12.07,2013-06-19 10:29:00,
2013-06-19 05:35:00,63.2,59.3,30.04,ESE,105,0.0,0.0,87,0.00,,SKC,0.00,VWS V12.07,2013-06-19 10:35:00,
2013-06-19 05:42:00,62.9,59.0,30.04,East,98,0.0,2.0,87,0.00,,SKC,0.00,VWS V12.07,2013-06-19 10:42:00,
2013-06-19 05:48:00,62.6,59.3,30.04,East,91,2.0,5.0,89,0.00,,SKC,0.00,VWS V12.07,2013-06-19 10:48:00,
2013-06-19 05:54:00,62.6,59.3,30.04,East,86,3.0,5.0,89,0.00,,SKC,0.00,VWS V12.07,2013-06-19 10:54:00,
2013-06-19 06:02:00,62.7,59.1,30.04,SE,139,3.0,3.0,88,0.00,,SKC,0.00,VWS V12.07,2013-06-19 11:02:00,
2013-06-19 06:09:00,62.9,59.3,30.04,East,82,1.0,6.0,88,0.00,,SKC,0.00,VWS V12.07,2013-06-19 11:09:00,
2013-06-19 06:14:00,63.1,59.5,30.05,East,97,0.0,6.0,88,0.00,,SKC,0.00,VWS V12.07,2013-06-19 11:14:00,
2013-06-19 06:22:00,63.6,59.7,30.05,ESE,103,3.0,6.0,87,0.00,,SKC,0.00,VWS V12.07,2013-06-19 11:22:00,
2013-06-19 06:28:00,64.5,59.9,30.05,ESE,117,0.0,6.0,85,0.00,,SKC,0.00,VWS V12.07,2013-06-19 11:28:00,
2013-06-19 06:35:00,65.2,59.9,30.05,East,89,0.0,3.0,83,0.00,,SKC,0.00,VWS V12.07,2013-06-19 11:35:00,
2013-06-19 06:42:00,65.3,60.0,30.05,ESE,113,2.0,3.0,83,0.00,,SKC,0.00,VWS V12.07,2013-06-19 11:42:00,
2013-06-19 06:49:00,65.6,60.6,30.05,SSE,148,0.0,4.0,84,0.00,,SKC,0.00,VWS V12.07,2013-06-19 11:49:00,
2013-06-19 06:55:00,66.1,60.5,30.05,ESE,110,1.0,4.0,82,0.00,,SKC,0.00,VWS V12.07,2013-06-19 11:55:00,
2013-06-19 07:02:00,66.5,60.5,30.06,SE,126,4.0,4.0,81,0.00,,SKC,0.00,VWS V12.07,2013-06-19 12:02:00,
2013-06-19 07:08:00,66.3,60.3,30.06,East,87,4.0,5.0,81,0.00,,SKC,0.00,VWS V12.07,2013-06-19 12:08:00,
2013-06-19 07:15:00,66.3,60.7,30.07,South,188,2.0,5.0,82,0.00,,SKC,0.00,VWS V12.07,2013-06-19 12:15:00,
2013-06-19 07:22:00,66.4,60.7,30.07,ESE,115,1.0,5.0,82,0.00,,SKC,0.00,VWS V12.07,2013-06-19 12:22:00,
2013-06-19 07:29:00,66.8,61.1,30.08,SE,125,0.0,5.0,82,0.00,,SKC,0.00,VWS V12.07,2013-06-19 12:29:00,
2013-06-19 07:35:00,67.6,61.2,30.08,SE,134,2.0,2.0,80,0.00,,SKC,0.00,VWS V12.07,2013-06-19 12:35:00,
2013-06-19 07:42:00,67.8,61.4,30.07,ESE,121,1.0,3.0,80,0.00,,SKC,0.00,VWS V12.07,2013-06-19 12:42:00,
2013-06-19 07:49:00,67.3,60.9,30.07,East,95,2.0,4.0,80,0.00,,SKC,0.00,VWS V12.07,2013-06-19 12:49:00,
2013-06-19 07:54:00,67.6,61.6,30.07,ENE,74,1.0,4.0,81,0.00,,SKC,0.00,VWS V12.07,2013-06-19 12:54:00,
2013-06-19 08:02:00,67.8,61.8,30.07,ENE,76,0.0,2.0,81,0.00,,SKC,0.00,VWS V12.07,2013-06-19 13:02:00,
2013-06-19 08:09:00,68.1,61.3,30.07,ESE,115,2.0,4.0,79,0.00,,SKC,0.00,VWS V12.07,2013-06-19 13:09:00,
2013-06-19 08:15:00,68.6,62.2,30.07,East,92,1.0,5.0,80,0.00,,SKC,0.00,VWS V12.07,2013-06-19 13:15:00,
2013-06-19 08:22:00,69.4,62.2,30.07,SE,138,2.0,5.0,78,0.00,,SKC,0.00,VWS V12.07,2013-06-19 13:22:00,
2013-06-19 08:29:00,70.0,62.5,30.07,SE,136,0.0,5.0,77,0.00,,SKC,0.00,VWS V12.07,2013-06-19 13:29:00,
2013-06-19 08:36:00,70.1,62.2,30.07,NE,54,1.0,4.0,76,0.00,,SKC,0.00,VWS V12.07,2013-06-19 13:36:00,
2013-06-19 08:42:00,69.7,62.5,30.07,ESE,110,1.0,6.0,78,0.00,,SKC,0.00,VWS V12.07,2013-06-19 13:42:00,
2013-06-19 08:49:00,70.2,63.0,30.07,East,85,1.0,6.0,78,0.00,,SKC,0.00,VWS V12.07,2013-06-19 13:49:00,
2013-06-19 08:54:00,70.4,63.6,30.06,ENE,70,2.0,6.0,79,0.00,,SKC,0.00,VWS V12.07,2013-06-19 13:54:00,
2013-06-19 09:02:00,71.1,63.5,30.07,SSE,165,0.0,2.0,77,0.00,,SKC,0.00,VWS V12.07,2013-06-19 14:02:00,
2013-06-19 09:09:00,72.0,64.0,30.07,SW,235,0.0,4.0,76,0.00,,SKC,0.00,VWS V12.07,2013-06-19 14:09:00,
2013-06-19 09:15:00,72.4,63.7,30.07,SE,128,1.0,4.0,74,0.00,,SKC,0.00,VWS V12.07,2013-06-19 14:15:00,
2013-06-19 09:22:00,72.4,64.4,30.07,SSE,167,1.0,5.0,76,0.00,,SKC,0.00,VWS V12.07,2013-06-19 14:22:00,
2013-06-19 09:29:00,72.6,63.8,30.07,SE,139,0.0,5.0,74,0.00,,SKC,0.00,VWS V12.07,2013-06-19 14:29:00,
2013-06-19 09:35:00,73.2,64.4,30.07,South,172,2.0,2.0,74,0.00,,SKC,0.00,VWS V12.07,2013-06-19 14:35:00,
2013-06-19 09:42:00,74.0,65.2,30.07,South,174,1.0,4.0,74,0.00,,SKC,0.00,VWS V12.07,2013-06-19 14:42:00,
2013-06-19 09:49:00,73.9,64.3,30.06,SSE,156,1.0,4.0,72,0.00,,SKC,0.00,VWS V12.07,2013-06-19 14:49:00,
2013-06-19 09:55:00,74.3,65.5,30.07,East,81,1.0,4.0,74,0.00,,SKC,0.00,VWS V12.07,2013-06-19 14:55:00,
2013-06-19 10:02:00,74.6,66.5,30.07,SE,134,1.0,2.0,76,0.00,,SKC,0.00,VWS V12.07,2013-06-19 15:02:00,
2013-06-19 10:09:00,75.2,65.6,30.07,SSE,150,0.0,3.0,72,0.00,,SKC,0.00,VWS V12.07,2013-06-19 15:09:00,
2013-06-19 10:15:00,75.2,65.6,30.07,NE,51,2.0,4.0,72,0.00,,SKC,0.00,VWS V12.07,2013-06-19 15:15:00,
2013-06-19 10:24:00,74.8,65.2,30.07,East,99,3.0,4.0,72,0.00,,SKC,0.00,VWS V12.07,2013-06-19 15:24:00,
2013-06-19 10:30:00,74.7,65.1,30.07,East,101,4.0,5.0,72,0.00,,SKC,0.00,VWS V12.07,2013-06-19 15:30:00,
2013-06-19 10:37:00,74.8,65.6,30.07,ESE,122,0.0,3.0,73,0.00,,SKC,0.00,VWS V12.07,2013-06-19 15:37:00,
2013-06-19 10:44:00,75.2,65.6,30.07,SSW,205,1.0,4.0,72,0.00,,SKC,0.00,VWS V12.07,2013-06-19 15:44:00,
2013-06-19 10:50:00,75.8,65.3,30.07,East,91,0.0,4.0,70,0.00,,SKC,0.00,VWS V12.07,2013-06-19 15:50:00,
2013-06-19 10:57:00,76.2,66.5,30.07,ESE,120,1.0,4.0,72,0.00,,SKC,0.00,VWS V12.07,2013-06-19 15:57:00,
2013-06-19 11:04:00,77.3,67.2,30.07,SE,134,0.0,2.0,71,0.00,,SKC,0.00,VWS V12.07,2013-06-19 16:04:00,
2013-06-19 11:10:00,77.4,66.4,30.08,ESE,103,0.0,4.0,69,0.00,,SKC,0.00,VWS V12.07,2013-06-19 16:10:00,
2013-06-19 11:17:00,77.4,66.4,30.08,East,91,0.0,5.0,69,0.00,,SKC,0.00,VWS V12.07,2013-06-19 16:17:00,
2013-06-19 11:24:00,78.2,68.0,30.08,SSE,162,1.0,5.0,71,0.00,,SKC,0.00,VWS V12.07,2013-06-19 16:24:00,
2013-06-19 11:32:00,78.2,66.4,30.08,ENE,61,0.0,1.0,67,0.00,,SKC,0.00,VWS V12.07,2013-06-19 16:32:00,
2013-06-19 11:39:00,78.9,67.0,30.08,East,91,1.0,4.0,67,0.00,,SKC,0.00,VWS V12.07,2013-06-19 16:39:00,
2013-06-19 11:44:00,79.2,67.3,30.08,SSE,150,0.0,4.0,67,0.00,,SKC,0.00,VWS V12.07,2013-06-19 16:44:00,
2013-06-19 11:50:00,79.4,65.3,30.08,SSE,151,3.0,5.0,62,0.00,,SKC,0.00,VWS V12.07,2013-06-19 16:50:00,
2013-06-19 11:57:00,79.9,65.3,30.08,South,169,2.0,5.0,61,0.00,,SKC,0.00,VWS V12.07,2013-06-19 16:57:00,
2013-06-19 12:05:00,80.5,66.3,30.08,SE,132,3.0,5.0,62,0.00,,SKC,0.00,VWS V12.07,2013-06-19 17:05:00,
2013-06-19 12:12:00,80.4,66.2,30.07,SSE,154,3.0,6.0,62,0.00,,SKC,0.00,VWS V12.07,2013-06-19 17:12:00,
2013-06-19 12:19:00,81.0,67.2,30.07,ESE,117,3.0,6.0,63,0.00,,SKC,0.00,VWS V12.07,2013-06-19 17:19:00,
2013-06-19 12:25:00,81.1,64.9,30.07,West,259,2.0,6.0,58,0.00,,SKC,0.00,VWS V12.07,2013-06-19 17:25:00,
2013-06-19 12:34:00,80.5,65.8,30.07,SE,144,0.0,4.0,61,0.00,,SKC,0.00,VWS V12.07,2013-06-19 17:34:00,
2013-06-19 12:40:00,80.8,63.7,30.07,East,89,4.0,9.0,56,0.00,,SKC,0.00,VWS V12.07,2013-06-19 17:40:00,
2013-06-19 12:47:00,81.1,64.4,30.07,SSE,153,2.0,9.0,57,0.00,,SKC,0.00,VWS V12.07,2013-06-19 17:47:00,
2013-06-19 12:54:00,81.2,64.0,30.07,East,93,1.0,9.0,56,0.00,,SKC,0.00,VWS V12.07,2013-06-19 17:54:00,
2013-06-19 12:59:00,81.6,63.9,30.06,NE,44,1.0,9.0,55,0.00,,SKC,0.00,VWS V12.07,2013-06-19 17:59:00,
2013-06-19 13:04:00,81.7,65.5,30.06,SE,134,3.0,6.0,58,0.00,,SKC,0.00,VWS V12.07,2013-06-19 18:04:00,
2013-06-19 13:14:00,82.6,64.8,30.06,SSE,155,2.0,7.0,55,0.00,,SKC,0.00,VWS V12.07,2013-06-19 18:14:00,
2013-06-19 13:19:00,82.7,64.9,30.06,SE,141,0.0,7.0,55,0.00,,SKC,0.00,VWS V12.07,2013-06-19 18:19:00,
2013-06-19 13:27:00,82.5,64.7,30.05,SSE,147,4.0,8.0,55,0.00,,SKC,0.00,VWS V12.07,2013-06-19 18:27:00,
2013-06-19 13:34:00,82.5,64.7,30.05,SSE,156,1.0,8.0,55,0.00,,SKC,0.00,VWS V12.07,2013-06-19 18:34:00,
2013-06-19 13:42:00,82.6,63.8,30.05,SSE,153,2.0,8.0,53,0.00,,SKC,0.00,VWS V12.07,2013-06-19 18:42:00,
2013-06-19 13:49:00,83.0,63.0,30.05,ESE,122,5.0,8.0,51,0.00,,SKC,0.00,VWS V12.07,2013-06-19 18:49:00,
2013-06-19 13:56:00,82.8,62.8,30.05,ESE,109,4.0,8.0,51,0.00,,SKC,0.00,VWS V12.07,2013-06-19 18:56:00,
2013-06-19 14:04:00,82.3,61.8,30.05,SE,130,0.0,6.0,50,0.00,,SKC,0.00,VWS V12.07,2013-06-19 19:04:00,
2013-06-19 14:09:00,82.5,64.7,30.04,ESE,110,4.0,9.0,55,0.00,,SKC,0.00,VWS V12.07,2013-06-19 19:09:00,
2013-06-19 14:17:00,83.0,65.7,30.04,SE,130,2.0,9.0,56,0.00,,SKC,0.00,VWS V12.07,2013-06-19 19:17:00,
2013-06-19 14:24:00,83.3,63.9,30.04,East,89,1.0,9.0,52,0.00,,SKC,0.00,VWS V12.07,2013-06-19 19:24:00,
2013-06-19 14:29:00,82.9,64.0,30.04,ESE,122,5.0,9.0,53,0.00,,SKC,0.00,VWS V12.07,2013-06-19 19:29:00,
2013-06-19 14:37:00,82.1,64.9,30.04,ESE,117,1.0,6.0,56,0.00,,SKC,0.00,VWS V12.07,2013-06-19 19:37:00,
2013-06-19 14:44:00,83.4,63.4,30.03,SSW,213,0.0,6.0,51,0.00,,SKC,0.00,VWS V12.07,2013-06-19 19:44:00,
2013-06-19 14:49:00,84.0,65.1,30.04,South,179,1.0,6.0,53,0.00,,SKC,0.00,VWS V12.07,2013-06-19 19:49:00,
2013-06-19 14:56:00,83.9,64.4,30.04,South,169,3.0,9.0,52,0.00,,SKC,0.00,VWS V12.07,2013-06-19 19:56:00,
2013-06-19 15:04:00,83.9,63.8,30.04,SW,235,0.0,2.0,51,0.00,,SKC,0.00,VWS V12.07,2013-06-19 20:04:00,
2013-06-19 15:09:00,84.4,63.2,30.04,East,99,2.0,3.0,49,0.00,,SKC,0.00,VWS V12.07,2013-06-19 20:09:00,
2013-06-19 15:14:00,85.0,64.9,30.04,SE,146,2.0,3.0,51,0.00,,SKC,0.00,VWS V12.07,2013-06-19 20:14:00,
2013-06-19 15:19:00,85.3,66.2,30.03,SE,127,1.0,5.0,53,0.00,,SKC,0.00,VWS V12.07,2013-06-19 20:19:00,
2013-06-19 15:29:00,84.7,64.6,30.03,SE,129,3.0,5.0,51,0.00,,SKC,0.00,VWS V12.07,2013-06-19 20:29:00,
2013-06-19 15:35:00,84.0,65.6,30.03,East,82,0.0,5.0,54,0.00,,SKC,0.00,VWS V12.07,2013-06-19 20:35:00,
2013-06-19 15:44:00,84.5,67.1,30.03,SSE,148,0.0,7.0,56,0.00,,SKC,0.00,VWS V12.07,2013-06-19 20:44:00,
2013-06-19 15:51:00,85.1,66.1,30.03,SE,141,3.0,7.0,53,0.00,,SKC,0.00,VWS V12.07,2013-06-19 20:51:00,
2013-06-19 15:59:00,85.5,65.3,30.03,SW,231,2.0,8.0,51,0.00,,SKC,0.00,VWS V12.07,2013-06-19 20:59:00,
2013-06-19 16:05:00,85.7,61.9,30.03,SW,218,0.0,2.0,45,0.00,,SKC,0.00,VWS V12.07,2013-06-19 21:05:00,
2013-06-19 16:14:00,85.3,63.4,30.03,SW,222,0.0,3.0,48,0.00,,SKC,0.00,VWS V12.07,2013-06-19 21:14:00,
2013-06-19 16:20:00,85.4,64.7,30.03,South,184,3.0,4.0,50,0.00,,SKC,0.00,VWS V12.07,2013-06-19 21:20:00,
2013-06-19 16:27:00,85.6,61.2,30.03,SE,141,1.0,4.0,44,0.00,,SKC,0.00,VWS V12.07,2013-06-19 21:27:00,
2013-06-19 16:34:00,86.0,62.2,30.03,NW,315,1.0,5.0,45,0.00,,SKC,0.00,VWS V12.07,2013-06-19 21:34:00,
2013-06-19 16:40:00,86.1,63.5,30.02,ESE,120,5.0,5.0,47,0.00,,SKC,0.00,VWS V12.07,2013-06-19 21:40:00,
2013-06-19 16:49:00,85.7,62.6,30.02,SE,133,2.0,6.0,46,0.00,,SKC,0.00,VWS V12.07,2013-06-19 21:49:00,
2013-06-19 16:59:00,85.0,62.5,30.02,SE,125,2.0,6.0,47,0.00,,SKC,0.00,VWS V12.07,2013-06-19 21:59:00,
2013-06-19 17:05:00,85.0,63.1,30.02,SE,138,2.0,5.0,48,0.00,,SKC,0.00,VWS V12.07,2013-06-19 22:05:00,
2013-06-19 17:14:00,85.3,60.9,30.02,East,86,2.0,6.0,44,0.00,,SKC,0.00,VWS V12.07,2013-06-19 22:14:00,
2013-06-19 17:19:00,85.6,61.2,30.02,East,84,1.0,6.0,44,0.00,,SKC,0.00,VWS V12.07,2013-06-19 22:19:00,
2013-06-19 17:26:00,85.0,61.9,30.02,ESE,103,0.0,6.0,46,0.00,,SKC,0.00,VWS V12.07,2013-06-19 22:26:00,
2013-06-19 17:34:00,84.2,63.6,30.02,SE,138,0.0,2.0,50,0.00,,SKC,0.00,VWS V12.07,2013-06-19 22:34:00,
2013-06-19 17:40:00,84.6,60.3,30.02,ESE,122,1.0,2.0,44,0.00,,SKC,0.00,VWS V12.07,2013-06-19 22:40:00,
2013-06-19 17:47:00,85.2,60.8,30.01,SE,141,3.0,4.0,44,0.00,,SKC,0.00,VWS V12.07,2013-06-19 22:47:00,
2013-06-19 17:55:00,84.8,63.5,30.02,ESE,122,1.0,4.0,49,0.00,,SKC,0.00,VWS V12.07,2013-06-19 22:55:00,
2013-06-19 18:02:00,84.7,64.6,30.01,SE,133,0.0,1.0,51,0.00,,SKC,0.00,VWS V12.07,2013-06-19 23:02:00,
2013-06-19 18:09:00,84.7,65.1,30.02,ESE,117,0.0,4.0,52,0.00,,SKC,0.00,VWS V12.07,2013-06-19 23:09:00,
2013-06-19 18:16:00,84.5,63.3,30.01,SE,133,0.0,4.0,49,0.00,,SKC,0.00,VWS V12.07,2013-06-19 23:16:00,
2013-06-19 18:24:00,84.1,64.6,30.01,SE,126,4.0,4.0,52,0.00,,SKC,0.00,VWS V12.07,2013-06-19 23:24:00,
2013-06-19 18:31:00,83.6,63.0,30.01,SE,130,2.0,3.0,50,0.00,,SKC,0.00,VWS V12.07,2013-06-19 23:31:00,
2013-06-19 18:39:00,83.3,63.9,30.01,SE,134,3.0,6.0,52,0.00,,SKC,0.00,VWS V12.07,2013-06-19 23:39:00,
2013-06-19 18:44:00,83.1,63.1,30.01,SSE,159,3.0,6.0,51,0.00,,SKC,0.00,VWS V12.07,2013-06-19 23:44:00,
2013-06-19 18:49:00,82.8,62.3,30.01,SE,128,5.0,6.0,50,0.00,,SKC,0.00,VWS V12.07,2013-06-19 23:49:00,
2013-06-19 18:59:00,82.6,62.7,30.01,ESE,115,2.0,6.0,51,0.00,,SKC,0.00,VWS V12.07,2013-06-19 23:59:00,
2013-06-19 19:07:00,82.0,63.2,30.02,East,93,1.0,5.0,53,0.00,,SKC,0.00,VWS V12.07,2013-06-20 00:07:00,
2013-06-19 19:14:00,81.0,63.3,30.01,ESE,111,2.0,5.0,55,0.00,,SKC,0.00,VWS V12.07,2013-06-20 00:14:00,
2013-06-19 19:19:00,80.5,63.4,30.01,ESE,110,0.0,5.0,56,0.00,,SKC,0.00,VWS V12.07,2013-06-20 00:19:00,
2013-06-19 19:24:00,80.5,62.9,30.01,East,99,1.0,5.0,55,0.00,,SKC,0.00,VWS V12.07,2013-06-20 00:24:00,
2013-06-19 19:34:00,80.5,63.4,30.01,SE,132,1.0,4.0,56,0.00,,SKC,0.00,VWS V12.07,2013-06-20 00:34:00,
2013-06-19 19:39:00,80.6,64.0,30.01,East,85,2.0,4.0,57,0.00,,SKC,0.00,VWS V12.07,2013-06-20 00:39:00,
2013-06-19 19:49:00,80.6,63.5,30.01,East,98,1.0,4.0,56,0.00,,SKC,0.00,VWS V12.07,2013-06-20 00:49:00,
2013-06-19 19:59:00,80.0,63.9,30.01,ESE,110,0.0,4.0,58,0.00,,SKC,0.00,VWS V12.07,2013-06-20 00:59:00,
2013-06-19 20:05:00,79.7,63.6,30.01,ESE,112,1.0,3.0,58,0.00,,SKC,0.00,VWS V12.07,2013-06-20 01:05:00,
2013-06-19 20:14:00,79.0,63.0,30.01,SSE,150,3.0,4.0,58,0.00,,SKC,0.00,VWS V12.07,2013-06-20 01:14:00,
2013-06-19 20:19:00,78.5,63.0,30.01,ESE,102,1.0,4.0,59,0.00,,SKC,0.00,VWS V12.07,2013-06-20 01:19:00,
2013-06-19 20:30:00,77.7,61.8,30.02,SE,128,0.0,4.0,58,0.00,,SKC,0.00,VWS V12.07,2013-06-20 01:30:00,
2013-06-19 20:39:00,77.0,61.1,30.02,ESE,121,0.0,2.0,58,0.00,,SKC,0.00,VWS V12.07,2013-06-20 01:39:00,
2013-06-19 20:49:00,76.3,60.9,30.02,ESE,120,0.0,2.0,59,0.00,,SKC,0.00,VWS V12.07,2013-06-20 01:49:00,
2013-06-19 20:54:00,75.9,60.6,30.02,ESE,122,0.0,2.0,59,0.00,,SKC,0.00,VWS V12.07,2013-06-20 01:54:00,
2013-06-19 20:59:00,75.7,60.8,30.02,ESE,103,0.0,2.0,60,0.00,,SKC,0.00,VWS V12.07,2013-06-20 01:59:00,
2013-06-19 21:05:00,75.4,61.0,30.02,ESE,117,0.0,0.0,61,0.00,,SKC,0.00,VWS V12.07,2013-06-20 02:05:00,
2013-06-19 21:15:00,74.7,60.8,30.02,ESE,115,1.0,3.0,62,0.00,,SKC,0.00,VWS V12.07,2013-06-20 02:15:00,
2013-06-19 21:24:00,74.1,60.7,30.02,ESE,120,2.0,3.0,63,0.00,,SKC,0.00,VWS V12.07,2013-06-20 02:24:00,
2013-06-19 21:29:00,74.0,61.1,30.02,SE,127,1.0,3.0,64,0.00,,SKC,0.00,VWS V12.07,2013-06-20 02:29:00,
2013-06-19 21:39:00,73.7,61.7,30.03,East,92,1.0,3.0,66,0.00,,SKC,0.00,VWS V12.07,2013-06-20 02:39:00,
2013-06-19 21:44:00,73.8,61.3,30.03,ESE,115,2.0,3.0,65,0.00,,SKC,0.00,VWS V12.07,2013-06-20 02:44:00,
2013-06-19 21:52:00,73.8,61.3,30.03,ESE,108,1.0,3.0,65,0.00,,SKC,0.00,VWS V12.07,2013-06-20 02:52:00,
2013-06-19 21:59:00,73.8,60.9,30.04,ESE,122,1.0,4.0,64,0.00,,SKC,0.00,VWS V12.07,2013-06-20 02:59:00,
2013-06-19 22:09:00,73.9,61.0,30.04,ESE,120,1.0,4.0,64,0.00,,SKC,0.00,VWS V12.07,2013-06-20 03:09:00,
2013-06-19 22:19:00,74.2,61.7,30.04,ESE,117,2.0,4.0,65,0.00,,SKC,0.00,VWS V12.07,2013-06-20 03:19:00,
2013-06-19 22:25:00,74.0,61.9,30.03,SE,131,2.0,5.0,66,0.00,,SKC,0.00,VWS V12.07,2013-06-20 03:25:00,
2013-06-19 22:32:00,74.1,62.0,30.04,East,96,3.0,5.0,66,0.00,,SKC,0.00,VWS V12.07,2013-06-20 03:32:00,
2013-06-19 22:39:00,74.1,62.0,30.04,ESE,109,2.0,5.0,66,0.00,,SKC,0.00,VWS V12.07,2013-06-20 03:39:00,
2013-06-19 22:45:00,73.9,61.8,30.04,East,99,3.0,5.0,66,0.00,,SKC,0.00,VWS V12.07,2013-06-20 03:45:00,
2013-06-19 22:52:00,73.6,62.0,30.04,ESE,122,2.0,5.0,67,0.00,,SKC,0.00,VWS V12.07,2013-06-20 03:52:00,
2013-06-19 22:59:00,73.4,62.2,30.05,SE,125,1.0,5.0,68,0.00,,SKC,0.00,VWS V12.07,2013-06-20 03:59:00,
2013-06-19 23:02:00,73.2,62.4,30.05,ESE,115,1.0,1.0,69,0.00,,SKC,0.00,VWS V12.07,2013-06-20 04:02:00,
2013-06-19 23:09:00,72.7,62.8,30.05,SE,129,0.0,2.0,71,0.00,,SKC,0.00,VWS V12.07,2013-06-20 04:09:00,
2013-06-19 23:12:00,72.2,63.1,30.05,SE,129,0.0,2.0,73,0.00,,SKC,0.00,VWS V12.07,2013-06-20 04:12:00,
2013-06-19 23:19:00,70.7,61.6,30.05,SE,129,0.0,2.0,73,0.00,,SKC,0.00,VWS V12.07,2013-06-20 04:19:00,
2013-06-19 23:27:00,69.7,61.4,30.05,SE,129,0.0,2.0,75,0.00,,SKC,0.00,VWS V12.07,2013-06-20 04:27:00,
2013-06-19 23:34:00,69.5,61.6,30.05,SE,129,0.0,0.0,76,0.00,,SKC,0.00,VWS V12.07,2013-06-20 04:34:00,
2013-06-19 23:40:00,69.4,61.9,30.06,SE,129,0.0,0.0,77,0.00,,SKC,0.00,VWS V12.07,2013-06-20 04:40:00,
2013-06-19 23:47:00,68.8,61.3,30.06,SE,129,0.0,0.0,77,0.00,,SKC,0.00,VWS V12.07,2013-06-20 04:47:00,
2013-06-19 23:55:00,68.8,62.0,30.06,ESE,115,0.0,0.0,79,0.00,,SKC,0.00,VWS V12.07,2013-06-20 04:55:00,